Weather in Beltsi

Moldova     47˚45′38″N   27˚55′38″E
temp.,
°C
wind,
m/s
gust,
m/s
humid.,
%
clouds,
%
prec.,
mm/h
press.,
hPa
HPBL,
m
28 november, sat
sat2823:00+2˚wnw2266100 0.0 102122
02:00+1˚nnw238396 0.0 102033
05:00+2˚n1189100 0.0 101922
08:00+3˚w0091100 0.0 101922
11:00+4˚wsw2283100 0.0 1019233
14:00+5˚nw3385100 0.0 1018373
17:00+3˚nnw3489100 0.0 1018329
20:00+3˚n2390100 0.1 1019322
29 november, sun
sun2923:00+3˚wnw1286100 0.0 1019171
02:00+3˚nnw2383100 0.0 1020387
05:00+1˚nw229299 0.0 101954
08:00nnw119386 0.0 102021
11:00+3˚n117491 0.0 1020411
14:00+4˚nne016692 0.0 1020706
17:00+3˚sse007595 0.0 102122
20:00+1˚n227992 0.0 102240
30 november, mon
mon3023:00n239127 0.0 102245
02:00−1˚n339515 0.0 102372
05:00−2˚n349631 0.0 102398
08:00−2˚n349421 0.0 1025110
11:00+2˚n456588 0.0 1026498
14:00+3˚n565794 0.0 1026791
17:00+1˚nnw3868100 0.0 1027245
20:00nnw4975100 0.0 1028293
1 december, tue
tue123:00−2˚n4882100 0.0 1029278
02:00−2˚nnw488399 0.0 1028285
05:00−3˚nnw38861 0.0 1028241
08:00−3˚nnw37870 0.0 1029200
11:00n46670 0.0 1028441
14:00+2˚n46600 0.0 1027580
17:00−1˚n337256 0.0 102768
20:00−1˚nne238273 0.0 102751
2 december, wed
wed223:00−2˚nne239588 0.1 1027125
02:00−2˚nne229786 0.2 102781
05:00−2˚nne229782 0.0 102758
08:00−2˚ne119887 0.1 102725
11:00+1˚ene128682 0.1 1027253
14:00+3˚e117878 0.1 1026480
17:00+2˚e1284100 0.0 102659
20:00+1˚ese1288100 0.0 1027186